Weather History for Marion, IN

Change the Weather History Date:

Tuesday, December 10, 2013

  Actual Average (KMIE) Record (KMIE)
Temperature  
Mean Temperature 16 °F 32 °F  
Max Temperature 78 °F 39 °F 65 °F (1971)
Min Temperature 5 °F 25 °F -1 °F (1977)
Degree Days  
Heating Degree Days 50 33  
Month to date heating degree days 312  
Since 1 July heating degree days 1447  
Cooling Degree Days 0 0  
Month to date cooling degree days 0  
Year to date cooling degree days 956  
Moisture  
Dew Point 8 °F    
Average Humidity 67    
Maximum Humidity 80    
Minimum Humidity 51    
Precipitation  
Precipitation 0.00 in 0.10 in 1.19 in (1966)
Month to date precipitation 0.99  
Year to date precipitation 38.23  
Sea Level Pressure  
Sea Level Pressure 30.17 in    
Wind  
Wind Speed 12 mph (West)    
Max Wind Speed 28 mph    
Max Gust Speed 36 mph    
Visibility 10 miles    
Events      
T = Trace of Precipitation, MM = Missing Value Source: NWS Daily Summary

Daily Weather History Graph

Daily Weather History Graph

Search for Another Location

Airport:

Trip Planner

Search our weather history database for the weather conditions in past years. The results will help you decide how hot, cold, wet, or windy it might be!

Date:

Astronomy

Dec. 10, 2013 Rise Set
Actual Time 7:55 AM EST 5:15 PM EST
Civil Twilight 7:24 AM EST 5:46 PM EST
Nautical Twilight 6:50 AM EST 6:20 PM EST
Astronomical Twilight 6:17 AM EST 6:54 PM EST
Moon 1:18 PM EST (12/10) 1:11 AM EST (12/10)
Length of Visible Light 10h 22m
Length of Day
9h 20m
First Quarter, 61% of the Moon is Illuminated
Dec 10
First Quarter
Dec 17
Full
Dec 25
Last Quarter
Jan 1
New
Jan 7
First Quarter

Hourly Weather History & Observations

Time (EST) Temp. Windchill Dew Point Humidity Pressure Visibility Wind Dir Wind Speed Gust Speed Precip Events Conditions
12:15 AM 17.4 °F 6.2 °F 9.1 °F 70% 30.19 in 10.0 mi WNW 9.2 mph - N/A   Overcast
12:35 AM 17.4 °F 6.2 °F 9.5 °F 71% 30.20 in 10.0 mi WNW 9.2 mph - N/A   Overcast
12:55 AM 17.2 °F 6.8 °F 9.3 °F 71% 30.18 in 10.0 mi WNW 8.1 mph - N/A   Overcast
1:15 AM 17.2 °F 5.2 °F 9.0 °F 70% 30.19 in 10.0 mi West 10.4 mph - N/A   Overcast
1:35 AM 17.2 °F 4.5 °F 7.9 °F 67% 30.19 in 10.0 mi West 11.5 mph - N/A   Overcast
1:55 AM 16.9 °F 4.8 °F 7.3 °F 66% 30.19 in 10.0 mi WNW 10.4 mph - N/A   Overcast
2:15 AM 16.7 °F 5.3 °F 7.5 °F 67% 30.19 in 10.0 mi WNW 9.2 mph - N/A   Overcast
2:35 AM 16.5 °F 3.6 °F 7.5 °F 68% 30.19 in 10.0 mi WNW 11.5 mph - N/A   Mostly Cloudy
2:55 AM 16.3 °F 4.9 °F 6.1 °F 64% 30.19 in 10.0 mi WNW 9.2 mph - N/A   Clear
3:15 AM 16.0 °F 2.9 °F 6.4 °F 66% 30.18 in 10.0 mi WNW 11.5 mph - N/A   Scattered Clouds
3:35 AM 15.6 °F 4.0 °F 7.0 °F 69% 30.18 in 10.0 mi WNW 9.2 mph - N/A   Scattered Clouds
3:55 AM 15.3 °F 2.0 °F 7.2 °F 70% 30.17 in 10.0 mi WNW 11.5 mph - N/A   Scattered Clouds
4:15 AM 14.7 °F 4.8 °F 7.2 °F 72% 30.16 in 10.0 mi WNW 6.9 mph - N/A   Scattered Clouds
4:35 AM 14.0 °F 2.9 °F 7.5 °F 75% 30.16 in 10.0 mi WNW 8.1 mph - N/A   Mostly Cloudy
4:55 AM 13.6 °F 2.5 °F 7.2 °F 75% 30.15 in 10.0 mi WNW 8.1 mph - N/A   Mostly Cloudy
5:35 AM 12.6 °F -0.6 °F 5.9 °F 75% 30.16 in 10.0 mi WNW 10.4 mph - N/A   Clear
5:55 AM 11.7 °F -2.5 °F 4.8 °F 74% 30.16 in 10.0 mi WNW 11.5 mph - N/A   Clear
6:15 AM 11.1 °F -2.4 °F 3.6 °F 72% 30.17 in 10.0 mi WNW 10.4 mph - N/A   Clear
6:35 AM 10.0 °F -2.9 °F 2.5 °F 72% 30.16 in 10.0 mi WNW 9.2 mph - N/A   Scattered Clouds
6:55 AM 9.3 °F -1.7 °F 2.5 °F 74% 30.17 in 10.0 mi West 6.9 mph - N/A   Scattered Clouds
7:15 AM 8.2 °F -1.8 °F 1.8 °F 75% 30.16 in 10.0 mi West 5.8 mph - N/A   Clear
7:35 AM 6.8 °F -0.1 °F 1.0 °F 77% 30.16 in 10.0 mi WSW 3.5 mph - N/A   Clear
7:55 AM 6.4 °F -2.4 °F 1.2 °F 79% 30.15 in 10.0 mi SW 4.6 mph - N/A   Clear
8:15 AM 5.9 °F -1.1 °F 1.0 °F 80% 30.16 in 10.0 mi SW 3.5 mph - N/A   Clear
8:35 AM 7.0 °F -4.5 °F 1.9 °F 80% 30.16 in 10.0 mi SW 6.9 mph - N/A   Clear
8:55 AM 9.1 °F -3.0 °F 3.2 °F 77% 30.16 in 10.0 mi SSW 8.1 mph - N/A   Clear
9:15 AM 10.6 °F -4.5 °F 4.3 °F 76% 30.15 in 10.0 mi SSW 12.7 mph - N/A   Scattered Clouds
9:35 AM 12.2 °F -3.7 °F 5.0 °F 73% 30.14 in 10.0 mi SSW 15.0 mph - N/A   Scattered Clouds
9:55 AM 13.8 °F -1.1 °F 6.3 °F 72% 30.13 in 10.0 mi SSW 13.8 mph - N/A   Mostly Cloudy
10:15 AM 14.9 °F -1.8 °F 7.3 °F 72% 30.14 in 10.0 mi SW 18.4 mph - N/A   Mostly Cloudy
10:35 AM 16.3 °F -0.4 °F 8.2 °F 70% 30.13 in 10.0 mi SW 19.6 mph - N/A   Mostly Cloudy
10:55 AM 17.4 °F 0.6 °F 8.2 °F 67% 30.13 in 10.0 mi SW 20.7 mph 24.2 mph N/A   Overcast
11:15 AM 18.9 °F 2.5 °F 8.2 °F 63% 30.13 in 10.0 mi WSW 20.7 mph 29.9 mph N/A   Overcast
11:35 AM 20.1 °F 3.1 °F 8.1 °F 60% 30.12 in 10.0 mi WSW 24.2 mph 29.9 mph N/A   Mostly Cloudy
11:55 AM 21.0 °F 5.0 °F 7.7 °F 56% 30.11 in 10.0 mi SW 21.9 mph 31.1 mph N/A   Mostly Cloudy
12:15 PM 21.4 °F 5.8 °F 8.8 °F 58% 30.11 in 10.0 mi WSW 20.7 mph 32.2 mph N/A   Mostly Cloudy
12:35 PM 22.5 °F 7.6 °F 9.3 °F 57% 30.10 in 10.0 mi WSW 19.6 mph 31.1 mph N/A   Mostly Cloudy
12:55 PM 23.9 °F 7.2 °F 10.2 °F 56% 30.08 in 10.0 mi WSW 27.6 mph 35.7 mph N/A   Scattered Clouds
1:15 PM 25.0 °F 10.2 °F 10.9 °F 55% 30.09 in 10.0 mi WSW 21.9 mph 31.1 mph N/A   Scattered Clouds
1:35 PM 25.9 °F 10.7 °F 11.8 °F 55% 30.09 in 10.0 mi West 24.2 mph 33.4 mph N/A   Overcast
1:55 PM 25.7 °F 9.6 °F 11.7 °F 55% 30.10 in 10.0 mi West 27.6 mph 34.5 mph N/A   Overcast
2:15 PM 25.5 °F 10.0 °F 12.4 °F 58% 30.09 in 10.0 mi West 25.3 mph 33.4 mph N/A   Mostly Cloudy
2:35 PM 25.5 °F 9.7 °F 12.4 °F 58% 30.10 in 10.0 mi West 26.5 mph 33.4 mph N/A   Mostly Cloudy
2:55 PM 26.2 °F 10.9 °F 12.6 °F 56% 30.11 in 10.0 mi West 25.3 mph 31.1 mph N/A   Scattered Clouds
3:15 PM 26.6 °F 11.7 °F 12.0 °F 54% 30.11 in 10.0 mi West 24.2 mph 32.2 mph N/A   Clear
3:35 PM 26.6 °F 11.7 °F 10.6 °F 51% 30.11 in 10.0 mi West 24.2 mph 31.1 mph N/A   Clear
3:55 PM 26.4 °F 11.5 °F 10.6 °F 51% 30.12 in 10.0 mi West 24.2 mph 28.8 mph N/A   Clear
4:15 PM 25.9 °F 11.1 °F 10.2 °F 52% 30.14 in 10.0 mi West 23.0 mph 29.9 mph N/A   Clear
4:35 PM 25.2 °F 11.2 °F 10.4 °F 54% 30.14 in 10.0 mi West 19.6 mph 27.6 mph N/A   Clear
4:55 PM 24.4 °F 9.9 °F 9.9 °F 54% 30.16 in 10.0 mi West 20.7 mph 27.6 mph N/A   Clear
5:15 PM 23.0 °F 11.1 °F 9.5 °F 56% 30.17 in 10.0 mi West 12.7 mph - N/A   Clear
5:35 PM 21.6 °F 7.8 °F 10.4 °F 62% 30.18 in 10.0 mi West 16.1 mph - N/A   Clear
5:55 PM 21.7 °F 7.1 °F 10.8 °F 63% 30.19 in 10.0 mi West 18.4 mph 23.0 mph N/A   Clear
6:15 PM 21.7 °F 8.0 °F 10.9 °F 63% 30.19 in 10.0 mi West 16.1 mph 23.0 mph N/A   Clear
6:35 PM 21.4 °F 9.7 °F 11.1 °F 65% 30.21 in 10.0 mi West 11.5 mph 21.9 mph N/A   Clear
6:55 PM 20.7 °F 9.5 °F 10.9 °F 66% 30.22 in 10.0 mi West 10.4 mph - N/A   Clear
7:15 PM 20.3 °F 6.6 °F 10.9 °F 67% 30.22 in 10.0 mi West 15.0 mph - N/A   Clear
7:35 PM 20.3 °F 8.3 °F 11.1 °F 68% 30.21 in 10.0 mi WSW 11.5 mph - N/A   Clear
7:55 PM 19.9 °F 7.9 °F 11.3 °F 69% 30.21 in 10.0 mi West 11.5 mph - N/A   Clear
8:15 PM 19.6 °F 8.1 °F 11.1 °F 70% 30.21 in 10.0 mi West 10.4 mph - N/A   Clear
8:35 PM 18.7 °F 7.8 °F 10.9 °F 72% 30.22 in 10.0 mi West 9.2 mph - N/A   Clear
8:55 PM 18.1 °F 6.3 °F 10.9 °F 73% 30.23 in 10.0 mi West 10.4 mph - N/A   Clear
9:15 PM 18.0 °F 6.1 °F 10.9 °F 74% 30.25 in 10.0 mi West 10.4 mph - N/A   Clear
9:35 PM 17.4 °F 6.2 °F 10.8 °F 75% 30.26 in 10.0 mi West 9.2 mph - N/A   Clear
9:55 PM 16.5 °F 6.0 °F 10.4 °F 77% 30.27 in 10.0 mi West 8.1 mph - N/A   Clear
10:15 PM 15.8 °F 4.2 °F 10.0 °F 78% 30.28 in 10.0 mi West 9.2 mph - N/A   Clear
10:35 PM 14.9 °F 3.1 °F 9.3 °F 79% 30.29 in 10.0 mi WNW 9.2 mph - N/A   Clear
10:55 PM 14.5 °F 3.6 °F 9.1 °F 79% 30.29 in 10.0 mi West 8.1 mph - N/A   Clear
11:15 PM 15.1 °F 3.3 °F 9.1 °F 77% 30.30 in 10.0 mi West 9.2 mph - N/A   Clear
11:35 PM 15.1 °F 3.3 °F 8.4 °F 75% 30.30 in 7.0 mi West 9.2 mph - N/A   Clear
11:55 PM 15.1 °F 3.3 °F 7.9 °F 73% 30.30 in 10.0 mi West 9.2 mph - N/A   Clear